| time (UTC) | temp F | wind direction | speed knots | gust knots | rain 1hr in | rain 24hr in | rain mn in | humidity % | barometer mb |
| 20260510021530 | 60 | 62 | 0.0 | 1.7 | 0.00 | 0.00 | 0.00 | 80 | 1009.9 |
| 20260510020029 | 60 | 62 | 0.0 | 0.9 | 0.00 | 0.00 | 0.00 | 79 | 1009.8 |
| 20260510014522 | 60 | 62 | 0.0 | 1.7 | 0.00 | 0.00 | 0.00 | 77 | 1009.8 |
| 20260510013021 | 61 | 62 | 0.0 | 1.7 | 0.00 | 0.00 | 0.00 | 76 | 1009.7 |
| 20260510011521 | 60 | 59 | 0.0 | 0.0 | 0.00 | 0.00 | 0.00 | 77 | 1009.2 |
| 20260510010020 | 61 | 59 | 0.0 | 0.0 | 0.00 | 0.00 | 0.00 | 76 | 1008.9 |
| 20260510004519 | 62 | 59 | 0.0 | 0.0 | 0.00 | 0.00 | 0.00 | 74 | 1008.8 |
| 20260510003018 | 63 | 59 | 0.0 | 0.0 | 0.00 | 0.00 | 0.00 | 71 | 1008.8 |
| 20260510001517 | 64 | 59 | 0.0 | 0.0 | 0.00 | 0.00 | 0.00 | 68 | 1008.7 |
| 20260510000019 | 66 | 59 | 0.0 | 0.0 | 0.00 | 0.00 | 0.00 | 65 | 1008.6 |
| 20260509234516 | 67 | 59 | 0.0 | 0.0 | 0.00 | 0.00 | 0.00 | 61 | 1008.6 |
| 20260509233019 | 68 | 63 | 0.0 | 0.9 | 0.00 | 0.00 | 0.00 | 64 | 1008.4 |
| 20260509231513 | 69 | 51 | 0.0 | 0.0 | 0.00 | 0.00 | 0.00 | 62 | 1008.4 |
| 20260509230014 | 69 | 90 | 0.0 | 0.0 | 0.00 | 0.00 | 0.00 | 63 | 1008.4 |
| 20260509224513 | 69 | 57 | 0.0 | 0.9 | 0.00 | 0.00 | 0.00 | 67 | 1008.4 |
| 20260509223012 | 69 | 58 | 0.0 | 1.7 | 0.00 | 0.00 | 0.00 | 60 | 1008.3 |
| 20260509221511 | 71 | 57 | 0.0 | 2.6 | 0.00 | 0.00 | 0.00 | 62 | 1008.4 |
| 20260509220011 | 70 | 105 | 0.0 | 1.7 | 0.00 | 0.00 | 0.00 | 62 | 1008.3 |
| 20260509214509 | 70 | 71 | 0.9 | 1.7 | 0.00 | 0.00 | 0.00 | 61 | 1008.3 |
| 20260509213013 | 69 | 107 | 0.0 | 1.7 | 0.00 | 0.00 | 0.00 | 62 | 1008.4 |
| 20260509211508 | 70 | 13 | 0.0 | 1.7 | 0.00 | 0.00 | 0.00 | 59 | 1008.3 |
| 20260509210008 | 71 | 63 | 1.7 | 3.5 | 0.00 | 0.00 | 0.00 | 52 | 1008.3 |
| 20260509204512 | 71 | 207 | 0.0 | 3.5 | 0.00 | 0.00 | 0.00 | 56 | 1008.4 |
| 20260509203018 | 71 | 172 | 0.9 | 7.8 | 0.00 | 0.00 | 0.00 | 55 | 1008.3 |
| 20260509201505 | 72 | 237 | 5.2 | 11.3 | 0.00 | 0.00 | 0.00 | 55 | 1008.3 |
| 20260509200004 | 73 | 122 | 1.7 | 9.6 | 0.00 | 0.00 | 0.00 | 54 | 1008.4 |
| 20260509194600 | 71 | 115 | 3.5 | 11.3 | 0.00 | 0.00 | 0.00 | 56 | 1008.6 |
| 20260509193102 | 71 | 155 | 1.7 | 10.4 | 0.00 | 0.00 | 0.00 | 57 | 1008.7 |
| 20260509191556 | 70 | 132 | 0.9 | 5.2 | 0.00 | 0.00 | 0.00 | 57 | 1009.1 |
| 20260509190055 | 70 | 242 | 1.7 | 8.7 | 0.00 | 0.00 | 0.00 | 57 | 1009.4 |
| 20260509184553 | 70 | 277 | 1.7 | 4.3 | 0.00 | 0.00 | 0.00 | 58 | 1009.1 |
| 20260509183102 | 70 | 57 | 0.9 | 3.5 | 0.00 | 0.00 | 0.00 | 60 | 1009.7 |
| 20260509181550 | 68 | 51 | 0.0 | 4.3 | 0.00 | 0.00 | 0.00 | 62 | 1009.6 |
| 20260509180045 | 67 | 313 | 0.0 | 1.7 | 0.00 | 0.00 | 0.00 | 62 | 1010.2 |
| 20260509174550 | 66 | 285 | 0.9 | 3.5 | 0.00 | 0.00 | 0.00 | 60 | 1010.5 |
| 20260509173046 | 67 | 293 | 0.9 | 3.5 | 0.00 | 0.00 | 0.00 | 58 | 1010.4 |
| 20260509171545 | 69 | 313 | 1.7 | 5.2 | 0.00 | 0.00 | 0.00 | 59 | 1010.8 |
| 20260509170039 | 67 | 270 | 1.7 | 3.5 | 0.00 | 0.00 | 0.00 | 62 | 1010.8 |
| 20260509164538 | 66 | 274 | 1.7 | 5.2 | 0.00 | 0.00 | 0.00 | 57 | 1010.9 |
| 20260509163045 | 64 | 107 | 0.9 | 3.5 | 0.00 | 0.00 | 0.00 | 59 | 1010.8 |
| 20260509161542 | 64 | 65 | 0.0 | 3.5 | 0.00 | 0.00 | 0.00 | 62 | 1010.9 |
| 20260509160034 | 64 | 139 | 1.7 | 4.3 | 0.00 | 0.00 | 0.00 | 59 | 1011.1 |
| 20260509154533 | 63 | 115 | 0.9 | 6.1 | 0.00 | 0.00 | 0.00 | 61 | 1011.0 |
| 20260509153046 | 64 | 228 | 1.7 | 6.1 | 0.00 | 0.00 | 0.00 | 59 | 1011.1 |
| 20260509151536 | 64 | 252 | 1.7 | 6.1 | 0.00 | 0.00 | 0.00 | 56 | 1011.3 |
| 20260509150039 | 63 | 156 | 3.5 | 7.8 | 0.00 | 0.00 | 0.00 | 58 | 1011.3 |
| 20260509144526 | 62 | 151 | 1.7 | 5.2 | 0.00 | 0.00 | 0.00 | 60 | 1011.5 |
| 20260509143022 | 61 | 124 | 1.7 | 5.2 | 0.00 | 0.00 | 0.00 | 61 | 1011.6 |
| 20260509141518 | 60 | 182 | 0.9 | 7.0 | 0.00 | 0.00 | 0.00 | 61 | 1011.8 |
| 20260509140016 | 59 | 163 | 2.6 | 5.2 | 0.00 | 0.00 | 0.00 | 63 | 1011.4 |
| 20260509134513 | 59 | 121 | 2.6 | 6.1 | 0.00 | 0.00 | 0.00 | 61 | 1011.6 |
| 20260509133013 | 59 | 312 | 0.9 | 4.3 | 0.00 | 0.00 | 0.00 | 60 | 1011.8 |
| 20260509131511 | 59 | 192 | 1.7 | 6.1 | 0.00 | 0.00 | 0.00 | 59 | 1011.7 |
| 20260509130009 | 59 | 188 | 0.9 | 7.0 | 0.00 | 0.00 | 0.00 | 60 | 1011.7 |
| 20260509124507 | 59 | 151 | 0.9 | 4.3 | 0.00 | 0.00 | 0.00 | 61 | 1011.7 |
| 20260509123006 | 59 | 164 | 0.0 | 2.6 | 0.00 | 0.00 | 0.00 | 60 | 1011.7 |
| 20260509121506 | 59 | 262 | 0.0 | 2.6 | 0.00 | 0.00 | 0.00 | 66 | 1011.8 |
| 20260509120001 | 58 | 146 | 0.0 | 4.3 | 0.00 | 0.00 | 0.00 | 61 | 1011.7 |
| 20260509114600 | 58 | 190 | 1.7 | 6.1 | 0.00 | 0.00 | 0.00 | 60 | 1011.4 |
| 20260509113105 | 57 | 146 | 1.7 | 4.3 | 0.00 | 0.00 | 0.00 | 61 | 1011.3 |
| 20260509111558 | 57 | 155 | 0.9 | 7.0 | 0.00 | 0.00 | 0.00 | 59 | 1011.1 |
| 20260509110058 | 57 | 96 | 0.9 | 2.6 | 0.00 | 0.00 | 0.00 | 59 | 1011.1 |
| 20260509104554 | 57 | 151 | 0.9 | 5.2 | 0.00 | 0.00 | 0.00 | 59 | 1011.1 |
| 20260509103058 | 57 | 156 | 3.5 | 7.0 | 0.00 | 0.00 | 0.00 | 58 | 1010.8 |
| 20260509101548 | 57 | 184 | 0.9 | 4.3 | 0.00 | 0.00 | 0.00 | 58 | 1010.9 |
| 20260509100051 | 56 | 213 | 1.7 | 5.2 | 0.00 | 0.00 | 0.00 | 59 | 1010.9 |
| 20260509094547 | 56 | 200 | 0.9 | 3.5 | 0.00 | 0.00 | 0.00 | 60 | 1010.9 |
| 20260509093045 | 56 | 208 | 0.0 | 5.2 | 0.00 | 0.00 | 0.00 | 58 | 1011.0 |
| 20260509091543 | 56 | 180 | 1.7 | 5.2 | 0.00 | 0.00 | 0.00 | 58 | 1011.1 |
| 20260509090048 | 56 | 169 | 0.9 | 5.2 | 0.00 | 0.00 | 0.00 | 58 | 1011.2 |
| 20260509084539 | 57 | 101 | 2.6 | 4.3 | 0.00 | 0.00 | 0.00 | 57 | 1011.3 |
| 20260509083036 | 57 | 138 | 0.9 | 6.1 | 0.00 | 0.00 | 0.00 | 57 | 1011.4 |
| 20260509081535 | 57 | 74 | 0.9 | 4.3 | 0.00 | 0.00 | 0.00 | 56 | 1011.6 |
| 20260509080033 | 57 | 142 | 1.7 | 7.0 | 0.00 | 0.00 | 0.00 | 56 | 1011.8 |
| 20260509074531 | 58 | 121 | 2.6 | 7.0 | 0.00 | 0.00 | 0.00 | 54 | 1011.8 |
| 20260509073029 | 59 | 160 | 3.5 | 7.8 | 0.00 | 0.00 | 0.00 | 51 | 1011.9 |
| 20260509071528 | 59 | 146 | 1.7 | 8.7 | 0.00 | 0.00 | 0.00 | 52 | 1011.7 |
| 20260509070025 | 59 | 249 | 2.6 | 7.0 | 0.00 | 0.00 | 0.00 | 51 | 1011.7 |
| 20260509064527 | 59 | 131 | 2.6 | 6.1 | 0.00 | 0.00 | 0.00 | 51 | 1011.8 |
| 20260509063026 | 59 | 165 | 2.6 | 7.0 | 0.00 | 0.00 | 0.00 | 51 | 1011.9 |
| 20260509061526 | 59 | 163 | 0.9 | 7.8 | 0.00 | 0.00 | 0.00 | 51 | 1012.0 |
| 20260509060027 | 59 | 189 | 3.5 | 8.7 | 0.00 | 0.00 | 0.00 | 51 | 1012.1 |
| 20260509054518 | 59 | 157 | 1.7 | 7.0 | 0.00 | 0.00 | 0.00 | 49 | 1012.0 |
| 20260509053016 | 59 | 182 | 3.5 | 9.6 | 0.00 | 0.00 | 0.00 | 49 | 1012.1 |
| 20260509051513 | 60 | 38 | 2.6 | 8.7 | 0.00 | 0.00 | 0.00 | 49 | 1012.2 |
| 20260509050034 | 59 | 129 | 0.9 | 7.0 | 0.00 | 0.00 | 0.00 | 51 | 1012.2 |
| 20260509044512 | 58 | 148 | 0.9 | 9.6 | 0.00 | 0.00 | 0.00 | 53 | 1012.2 |
| 20260509043011 | 56 | 131 | 3.5 | 7.0 | 0.00 | 0.00 | 0.00 | 55 | 1012.2 |
| 20260509041512 | 55 | 121 | 0.9 | 3.5 | 0.00 | 0.00 | 0.00 | 61 | 1012.2 |
| 20260509040010 | 56 | 121 | 0.0 | 3.5 | 0.00 | 0.00 | 0.00 | 58 | 1012.3 |
| 20260509034511 | 57 | 184 | 0.9 | 3.5 | 0.00 | 0.00 | 0.00 | 56 | 1012.3 |
| 20260509033010 | 56 | 153 | 0.9 | 4.3 | 0.00 | 0.00 | 0.00 | 57 | 1012.3 |
| 20260509031518 | 56 | 119 | 0.0 | 4.3 | 0.00 | 0.00 | 0.00 | 60 | 1012.4 |
| 20260509030008 | 56 | 140 | 1.7 | 3.5 | 0.00 | 0.00 | 0.00 | 59 | 1012.5 |
| 20260509024508 | 57 | 128 | 1.7 | 5.2 | 0.00 | 0.00 | 0.00 | 58 | 1012.6 |
| 20260509023014 | 57 | 145 | 0.9 | 3.5 | 0.00 | 0.00 | 0.00 | 58 | 1012.6 |